CZ-6A DEB

Satellite information

Favourite Embed

Satellite Type and Status

DEBRISIN ORBIT

Key statistics

Satellite CZ-6A DEB at a glance.

Uptime

273

Days in orbit

Revolutions

≈ 14.2

Per day

Orbit

LEO

Low Earth Orbit

Inclination

88.9

Latest

Satellite identification and parameters

Extended collection of information and parameters for CZ-6A DEB.

Object identification

Identified? True

Debris? True

Object name: CZ-6A DEB

International designator: 2024-140JD

Object number (NORAD): 60850

Object ID (CCSDS): 60850

Country: PEOPLES REPUBLIC OF CHINA (PRC)

Current information (Y/N): Y

RCS size: SMALL

Orbital parameters

Period: 101.148 minutes

Inclination: 88.8636 deg

SMA: 7191.151 km

Apoapsis: 832.366 km

Periapsis: 793.666 km

RAAN: 316.1657 deg

Eccentricy: 0.0026908

Argument of periapsis: 52.1481 deg

Mean anomaly: 308.2139 deg

Mean motion: 14.23656161 rev/day

Mean motion (dot): 0.00000564 rev/day2

B* drag term: 0.0002401 1/REarth

Two-line elements (TLE)

Creation date: May 4, 2025, 10:56 p.m.

Reference frame: TEME

Reference center: EARTH

Epoch: May 4, 2025, 12:49 p.m. UTC

TLE line 0: 0 CZ-6A DEB

TLE line 1: 1 60850U 24140JD 25124.53450878 .00000564 00000-0 24010-3 0 9999

TLE line 2: 2 60850 88.8636 316.1657 0026908 52.1481 308.2139 14.23656161 37411

Live tracking on map

Real-time ground track for satellite CZ-6A DEB.

In-orbit conjunctions

A list of the most updated potential collisions computed for object CZ-6A DEB.

Target Orbit TCA Probability of collision Miss distance Type
COSMOS 1275 DEB LEO 2025-03-05 21:06:57 0.0008065409 82.0 (m) DEBRIS
NOAA 16 DEB SSO 2025-02-17 14:20:11 0.0001843368 612.0 (m) DEBRIS
FENGYUN 1C DEB SSO 2025-01-23 10:40:49 0.0001265662 453.0 (m) DEBRIS
FENGYUN 1C DEB SSO 2025-01-16 15:48:53 0.001232977 359.0 (m) DEBRIS
METEOR 2-7 DEB LEO 2024-10-22 01:54:54 0.0001433467 978.0 (m) DEBRIS

Associated space launch

18 Low Earth Orbit communication satellites with Ku, Q and V band payloads for the G60 constellation operated by Shanghai Spacecom Satellite Technology (SSST) with funding backed by the Shanghai local government. Initial constellation will consist of 1296 satellites by 2027 with long term plans to expand it to 12000 satellites.

CZ-6A DEB was lifted into orbit during the mission ‘Long March 6A | G60 Polar Group 01’, on board a Long March 6A space rocket.

The launch took place on Aug. 6, 2024, 6:42 a.m. from Launch Complex 9A.

For more information about the launch, click the button.

Launch to space Long March 6A | G60 Polar Group 01
Long March 6A | G60 Polar Group 01

Agency: N/A

Status: Launch Successful

Launch date: Aug. 6, 2024, 6:42 a.m. UTC

Rocket: Long March 6A

Launch pad: Launch Complex 9A

Location: Taiyuan Satellite Launch Center, People's Republic of China

...

Latest news about this satellite

News about space launch
Brightness of first Chinese broadband constellation satellites alarms astronomers

The first satellites of a Chinese broadband constellation are significantly brighter than those of Western systems, posing a new challenge for astronomers.

News about space launch
Chinese rocket stage breaks up into cloud of more than 700 pieces of space debris

HELSINKI — A Chinese Long March 6A rocket’s upper stage has fragmented into a cloud of over 700 pieces of space debris, adding to concerns about long-term orbital safety. China […]

News about space launch
China's Thousand Sails Megaconstellation Kicks Off with Dangerous Debris Field

China's Thousand Sails Megaconstellation Kicks Off with Dangerous Debris Field


Newsletter sign-up

Weekly statistics, charts and insights to help you stay on top of the space industry.